| time (UTC) | temp C | wind direction | speed KPH | gust KPH | rain 1hr cm | rain 24hr cm | rain mn cm | humidity % | barometer mb |
| 20260504030506 | 16 | 280 | 3.2 | 3.2 | 0.00 | 0.03 | 0.03 | 100 | 1009.0 |
| 20260504030005 | 16 | 288 | 1.6 | 3.2 | 0.00 | 0.03 | 0.03 | 100 | 1008.9 |
| 20260504024505 | 17 | 291 | 3.2 | 4.8 | 0.00 | 0.03 | 0.03 | 100 | 1008.7 |
| 20260504024005 | 17 | 285 | 3.2 | 3.2 | 0.00 | 0.03 | 0.03 | 100 | 1008.7 |
| 20260504023505 | 17 | 269 | 4.8 | 4.8 | 0.00 | 0.03 | 0.03 | 100 | 1008.8 |
| 20260504022505 | 17 | 301 | 4.8 | 8.0 | 0.00 | 0.03 | 0.03 | 100 | 1008.6 |
| 20260504021505 | 17 | 306 | 6.4 | 11.3 | 0.00 | 0.03 | 0.03 | 100 | 1008.5 |
| 20260504015505 | 18 | 274 | 8.0 | 11.3 | 0.00 | 0.03 | 0.03 | 100 | 1008.4 |
| 20260504015005 | 18 | 277 | 9.7 | 11.3 | 0.00 | 0.03 | 0.03 | 100 | 1008.3 |
| 20260504014505 | 18 | 272 | 8.0 | 11.3 | 0.00 | 0.03 | 0.03 | 100 | 1008.4 |
| 20260504014005 | 19 | 267 | 8.0 | 11.3 | 0.00 | 0.03 | 0.03 | 100 | 1008.3 |
| 20260504012505 | 20 | 265 | 8.0 | 11.3 | 0.00 | 0.03 | 0.03 | 100 | 1008.1 |
| 20260504011506 | 20 | 262 | 9.7 | 12.9 | 0.00 | 0.03 | 0.03 | 100 | 1008.0 |
| 20260504011005 | 20 | 266 | 11.3 | 14.5 | 0.00 | 0.03 | 0.03 | 100 | 1007.9 |
| 20260504010505 | 21 | 271 | 11.3 | 14.5 | 0.00 | 0.03 | 0.03 | 100 | 1007.8 |
| 20260504010005 | 21 | 262 | 11.3 | 14.5 | 0.00 | 0.03 | 0.03 | 100 | 1007.8 |
| 20260504005505 | 21 | 273 | 12.9 | 16.1 | 0.00 | 0.03 | 0.03 | 100 | 1007.8 |
| 20260504004505 | 21 | 266 | 11.3 | 16.1 | 0.00 | 0.03 | 0.03 | 100 | 1007.8 |
| 20260504004005 | 22 | 258 | 9.7 | 14.5 | 0.00 | 0.03 | 0.03 | 100 | 1007.6 |
| 20260504001505 | 22 | 277 | 11.3 | 19.3 | 0.00 | 0.03 | 0.03 | 100 | 1007.5 |
| 20260504001005 | 22 | 284 | 14.5 | 20.9 | 0.00 | 0.03 | 0.03 | 100 | 1007.7 |
| 20260504000506 | 23 | 293 | 16.1 | 25.7 | 0.00 | 0.03 | 0.03 | 100 | 1007.6 |
| 20260504000006 | 23 | 280 | 17.7 | 25.7 | 0.00 | 0.03 | 0.03 | 100 | 1007.6 |
| 20260503235505 | 23 | 293 | 20.9 | 27.4 | 0.00 | 0.03 | 0.03 | 100 | 1007.4 |
| 20260503233505 | 23 | 292 | 22.5 | 32.2 | 0.00 | 0.03 | 0.03 | 100 | 1007.6 |
| 20260503232505 | 23 | 267 | 22.5 | 29.0 | 0.00 | 0.03 | 0.03 | 100 | 1007.5 |
| 20260503232005 | 23 | 291 | 19.3 | 32.2 | 0.00 | 0.03 | 0.03 | 100 | 1007.5 |
| 20260503231505 | 23 | 292 | 25.7 | 35.4 | 0.00 | 0.03 | 0.03 | 100 | 1007.5 |
| 20260503231005 | 24 | 275 | 16.1 | 25.7 | 0.00 | 0.03 | 0.03 | 100 | 1007.4 |
| 20260503223006 | 24 | 261 | 17.7 | 27.4 | 0.00 | 0.03 | 0.03 | 100 | 1007.3 |
| 20260503222505 | 24 | 253 | 20.9 | 32.2 | 0.00 | 0.03 | 0.03 | 100 | 1007.2 |
| 20260503221505 | 25 | 294 | 25.7 | 33.8 | 0.00 | 0.03 | 0.03 | 100 | 1007.2 |
| 20260503221005 | 25 | 253 | 17.7 | 29.0 | 0.00 | 0.03 | 0.03 | 100 | 1007.3 |
| 20260503220005 | 24 | 283 | 14.5 | 22.5 | 0.00 | 0.03 | 0.03 | 100 | 1007.2 |
| 20260503215505 | 24 | 251 | 19.3 | 32.2 | 0.00 | 0.03 | 0.03 | 100 | 1007.1 |
| 20260503215005 | 25 | 249 | 19.3 | 32.2 | 0.00 | 0.03 | 0.03 | 100 | 1007.1 |
| 20260503213506 | 25 | 261 | 16.1 | 27.4 | 0.00 | 0.03 | 0.03 | 100 | 1007.2 |
| 20260503211505 | 25 | 261 | 22.5 | 37.0 | 0.00 | 0.03 | 0.03 | 100 | 1007.3 |
| 20260503204505 | 25 | 294 | 20.9 | 41.8 | 0.00 | 0.03 | 0.03 | 100 | 1007.6 |
| 20260503200505 | 24 | 233 | 16.1 | 27.4 | 0.00 | 0.03 | 0.03 | 100 | 1008.1 |
| 20260503195005 | 23 | 261 | 12.9 | 24.1 | 0.00 | 0.03 | 0.03 | 100 | 1008.3 |
| 20260503194004 | 23 | 241 | 16.1 | 32.2 | 0.00 | 0.03 | 0.03 | 100 | 1008.7 |
| 20260503193505 | 23 | 239 | 16.1 | 24.1 | 0.00 | 0.03 | 0.03 | 100 | 1008.6 |
| 20260503185505 | 22 | 244 | 27.4 | 35.4 | 0.00 | 0.03 | 0.03 | 100 | 1009.1 |
| 20260503182006 | 21 | 222 | 17.7 | 27.4 | 0.00 | 0.03 | 0.03 | 100 | 1009.8 |
| 20260503181505 | 21 | 216 | 9.7 | 25.7 | 0.00 | 0.03 | 0.03 | 100 | 1009.8 |
| 20260503180505 | 20 | 203 | 20.9 | 33.8 | 0.00 | 0.03 | 0.03 | 100 | 1010.0 |
| 20260503180005 | 20 | 205 | 17.7 | 32.2 | 0.00 | 0.03 | 0.03 | 100 | 1010.1 |
| 20260503175504 | 20 | 219 | 16.1 | 29.0 | 0.00 | 0.03 | 0.03 | 100 | 1010.1 |
| 20260503175005 | 20 | 230 | 19.3 | 27.4 | 0.00 | 0.03 | 0.03 | 100 | 1010.2 |
| 20260503174504 | 20 | 224 | 19.3 | 35.4 | 0.00 | 0.03 | 0.03 | 100 | 1010.3 |
| 20260503173504 | 20 | 232 | 16.1 | 24.1 | 0.00 | 0.03 | 0.03 | 100 | 1010.4 |
| 20260503172505 | 18 | 245 | 19.3 | 32.2 | 0.00 | 0.03 | 0.03 | 100 | 1010.6 |
| 20260503172005 | 18 | 212 | 16.1 | 27.4 | 0.00 | 0.03 | 0.03 | 100 | 1010.6 |
| 20260503171504 | 18 | 217 | 20.9 | 33.8 | 0.00 | 0.03 | 0.03 | 100 | 1010.6 |
| 20260503170505 | 18 | 215 | 16.1 | 35.4 | 0.00 | 0.03 | 0.03 | 100 | 1010.9 |
| 20260503151005 | 13 | 200 | 22.5 | 37.0 | 0.00 | 0.03 | 0.03 | 100 | 1012.2 |
| 20260503150505 | 13 | 184 | 22.5 | 32.2 | 0.00 | 0.03 | 0.03 | 100 | 1012.4 |
| 20260503130504 | 8 | 143 | 19.3 | 25.7 | 0.03 | 0.03 | 0.03 | 100 | 1014.6 |
| 20260503081504 | 8 | 190 | 8.0 | 12.9 | 0.00 | 0.00 | 0.00 | 100 | 1017.0 |
| 20260503052504 | 8 | 204 | 8.0 | 14.5 | 0.00 | 0.00 | 0.00 | 100 | 1017.8 |
| 20260503052004 | 8 | 200 | 9.7 | 16.1 | 0.00 | 0.00 | 0.00 | 100 | 1017.8 |
| 20260503050504 | 8 | 214 | 4.8 | 8.0 | 0.00 | 0.00 | 0.00 | 100 | 1017.9 |
| 20260503045504 | 8 | 205 | 8.0 | 12.9 | 0.00 | 0.00 | 0.00 | 100 | 1017.9 |
| 20260503045004 | 8 | 201 | 4.8 | 12.9 | 0.00 | 0.00 | 0.00 | 100 | 1017.9 |
| 20260503043004 | 8 | 190 | 4.8 | 8.0 | 0.00 | 0.00 | 0.00 | 100 | 1018.0 |
| 20260503042503 | 8 | 196 | 4.8 | 9.7 | 0.00 | 0.00 | 0.00 | 100 | 1018.1 |
| 20260503042004 | 8 | 202 | 4.8 | 8.0 | 0.00 | 0.00 | 0.00 | 100 | 1018.1 |
| 20260503041003 | 8 | 204 | 4.8 | 8.0 | 0.00 | 0.00 | 0.00 | 100 | 1018.2 |
| 20260503035505 | 8 | 214 | 3.2 | 4.8 | 0.00 | 0.00 | 0.00 | 100 | 1018.4 |
| 20260503034005 | 8 | 204 | 4.8 | 8.0 | 0.00 | 0.00 | 0.00 | 100 | 1018.5 |
| 20260503033006 | 8 | 205 | 3.2 | 4.8 | 0.00 | 0.00 | 0.00 | 100 | 1018.7 |
| 20260503032505 | 8 | 211 | 4.8 | 8.0 | 0.00 | 0.00 | 0.00 | 100 | 1018.7 |
| 20260503031505 | 8 | 201 | 4.8 | 8.0 | 0.00 | 0.00 | 0.00 | 100 | 1018.9 |